Location: Easter Hill Village
(37.9235°N, 122.3444°W)
Time: 16:46:12
(UTC+00:00)

CZ-2C R/B - Pass Details

Date: 16 September 2019
Orbit: 669 x 784 km, 98.1° (Epoch: 14 October)

Event Time Altitude Azimuth Distance (km) Brightness Sun altitude
Rises 11:58:47 0° 22° (NNE) 3,127 6.3 -22.5°
Reaches altitude 10° 12:01:12 10° 31° (NNE) 2,222 5.6 -22.0°
Maximum altitude 12:05:41 36° 98° (E) 1,162 3.9 -21.2°
Drops below altitude 10° 12:10:17 10° 164° (SSE) 2,274 4.9 -20.4°
Sets 12:12:46 0° 173° (S) 3,211 5.6 -19.9°
